| time (UTC) | temp F | wind direction | speed MPH | gust MPH | rain 1hr in | rain 24hr in | rain mn in | humidity % | barometer mb |
| 20260507163332 | 69 | 233 | 2.0 | 5.0 | 0.00 | 0.36 | 0.03 | 50 | 1011.0 |
| 20260507161848 | 70 | 215 | 3.0 | 4.0 | 0.00 | 0.36 | 0.03 | 51 | 1010.8 |
| 20260507160336 | 70 | 325 | 4.0 | 5.0 | 0.00 | 0.36 | 0.03 | 49 | 1010.9 |
| 20260507154837 | 70 | 189 | 2.0 | 7.0 | 0.00 | 0.36 | 0.03 | 50 | 1010.9 |
| 20260507153524 | 70 | 247 | 5.0 | 9.0 | 0.00 | 0.36 | 0.03 | 52 | 1010.9 |
| 20260507153330 | 70 | 247 | 5.0 | 9.0 | 0.00 | 0.36 | 0.03 | 52 | 1010.9 |
| 20260507152628 | 69 | 244 | 1.0 | 4.0 | 0.00 | 0.36 | 0.03 | 54 | 1010.9 |
| 20260507151844 | 69 | 244 | 1.0 | 4.0 | 0.00 | 0.36 | 0.03 | 54 | 1010.9 |
| 20260507150340 | 70 | 250 | 4.0 | 6.0 | 0.00 | 0.36 | 0.03 | 48 | 1011.1 |
| 20260507144836 | 69 | 252 | 0.0 | 5.0 | 0.00 | 0.36 | 0.03 | 53 | 1011.1 |
| 20260507143334 | 69 | 248 | 1.0 | 6.0 | 0.00 | 0.95 | 0.03 | 52 | 1011.1 |
| 20260507141827 | 69 | 200 | 5.0 | 7.0 | 0.00 | 0.95 | 0.03 | 53 | 1011.2 |
| 20260507140342 | 69 | 245 | 3.0 | 7.0 | 0.00 | 0.95 | 0.03 | 53 | 1011.3 |
| 20260507134834 | 69 | 325 | 6.0 | 10.0 | 0.00 | 0.95 | 0.03 | 54 | 1011.4 |
| 20260507133334 | 69 | 242 | 4.0 | 10.0 | 0.00 | 1.37 | 0.03 | 58 | 1011.5 |
| 20260507131844 | 67 | 320 | 0.0 | 6.0 | 0.00 | 1.37 | 0.03 | 57 | 1011.6 |
| 20260507130342 | 69 | 319 | 2.0 | 9.0 | 0.00 | 1.37 | 0.03 | 55 | 1011.8 |
| 20260507124839 | 68 | 265 | 4.0 | 9.0 | 0.00 | 1.37 | 0.03 | 58 | 1011.8 |
| 20260507123330 | 67 | 5 | 5.0 | 7.0 | 0.00 | 1.38 | 0.03 | 60 | 1012.0 |
| 20260507121842 | 67 | 300 | 4.0 | 8.0 | 0.00 | 1.38 | 0.03 | 61 | 1012.0 |
| 20260507120341 | 67 | 290 | 3.0 | 7.0 | 0.00 | 1.38 | 0.03 | 60 | 1011.9 |
| 20260507114839 | 66 | 232 | 1.0 | 6.0 | 0.00 | 1.38 | 0.03 | 62 | 1012.1 |
| 20260507113332 | 67 | 197 | 2.0 | 7.0 | 0.00 | 1.39 | 0.03 | 62 | 1012.2 |
| 20260507111845 | 65 | 251 | 2.0 | 11.0 | 0.00 | 1.39 | 0.03 | 60 | 1012.4 |
| 20260507110341 | 65 | 240 | 6.0 | 10.0 | 0.00 | 1.39 | 0.03 | 69 | 1012.5 |
| 20260507104839 | 64 | 222 | 4.0 | 6.0 | 0.00 | 1.39 | 0.03 | 69 | 1012.7 |
| 20260507103331 | 64 | 231 | 3.0 | 7.0 | 0.00 | 1.39 | 0.03 | 67 | 1012.8 |
| 20260507101848 | 64 | 218 | 5.0 | 9.0 | 0.00 | 1.39 | 0.03 | 70 | 1012.8 |
| 20260507100338 | 62 | 311 | 0.0 | 3.0 | 0.00 | 1.39 | 0.03 | 74 | 1013.0 |
| 20260507094829 | 62 | 257 | 0.0 | 4.0 | 0.00 | 1.39 | 0.03 | 72 | 1013.0 |
| 20260507093344 | 62 | 261 | 2.0 | 6.0 | 0.00 | 1.39 | 0.03 | 73 | 1013.0 |
| 20260507091838 | 61 | 194 | 0.0 | 9.0 | 0.00 | 1.39 | 0.03 | 73 | 1012.9 |
| 20260507090336 | 60 | 294 | 1.0 | 3.0 | 0.00 | 1.39 | 0.03 | 76 | 1012.9 |
| 20260507084832 | 59 | 119 | 2.0 | 4.0 | 0.00 | 1.39 | 0.03 | 77 | 1012.9 |
| 20260507083329 | 59 | 218 | 0.0 | 3.0 | 0.00 | 1.46 | 0.03 | 82 | 1012.8 |
| 20260507081842 | 59 | 217 | 0.0 | 3.0 | 0.00 | 1.46 | 0.03 | 81 | 1012.8 |
| 20260507080337 | 59 | 316 | 0.0 | 5.0 | 0.00 | 1.46 | 0.03 | 82 | 1012.7 |
| 20260507074831 | 58 | 56 | 0.0 | 0.0 | 0.00 | 1.46 | 0.03 | 83 | 1012.6 |
| 20260507073340 | 57 | 56 | 0.0 | 3.0 | 0.00 | 1.52 | 0.03 | 83 | 1012.5 |
| 20260507071836 | 56 | 71 | 1.0 | 3.0 | 0.00 | 1.52 | 0.03 | 83 | 1012.5 |
| 20260507070327 | 56 | 93 | 4.0 | 7.0 | 0.00 | 1.52 | 0.03 | 83 | 1012.5 |
| 20260507064835 | 56 | 61 | 2.0 | 7.0 | 0.00 | 1.52 | 0.03 | 84 | 1012.2 |
| 20260507063336 | 55 | 92 | 3.0 | 6.0 | 0.00 | 1.52 | 0.03 | 88 | 1012.2 |
| 20260507061829 | 54 | 50 | 3.0 | 6.0 | 0.00 | 1.52 | 0.03 | 89 | 1012.0 |
| 20260507060342 | 53 | 34 | 3.0 | 5.0 | 0.00 | 1.52 | 0.03 | 89 | 1012.0 |
| 20260507054835 | 53 | 35 | 2.0 | 7.0 | 0.00 | 1.52 | 0.03 | 89 | 1011.9 |
| 20260507053327 | 52 | 34 | 3.0 | 5.0 | 0.00 | 1.54 | 0.03 | 90 | 1011.8 |
| 20260507051843 | 52 | 76 | 1.0 | 4.0 | 0.00 | 1.54 | 0.03 | 90 | 1011.6 |
| 20260507050342 | 52 | 74 | 1.0 | 3.0 | 0.01 | 1.54 | 0.03 | 90 | 1011.4 |
| 20260507044836 | 51 | 78 | 1.0 | 9.0 | 0.01 | 1.54 | 0.03 | 90 | 1011.2 |
| 20260507043336 | 51 | 78 | 4.0 | 6.0 | 0.01 | 1.56 | 0.03 | 90 | 1011.0 |
| 20260507041832 | 51 | 77 | 2.0 | 4.0 | 0.02 | 1.56 | 0.03 | 90 | 1011.0 |
| 20260507040326 | 51 | 84 | 3.0 | 5.0 | 0.03 | 1.56 | 0.03 | 89 | 1011.0 |
| 20260507034843 | 52 | 72 | 3.0 | 7.0 | 0.02 | 1.55 | 0.02 | 89 | 1010.8 |
| 20260507033336 | 52 | 84 | 5.0 | 12.0 | 0.02 | 1.57 | 0.02 | 89 | 1010.8 |
| 20260507031829 | 52 | 65 | 3.0 | 7.0 | 0.01 | 1.56 | 0.01 | 88 | 1010.9 |
| 20260507030341 | 52 | 73 | 3.0 | 11.0 | 0.00 | 1.55 | 0.00 | 88 | 1010.9 |
| 20260507024833 | 52 | 44 | 7.0 | 12.0 | 0.00 | 1.55 | 0.00 | 88 | 1010.7 |
| 20260507023324 | 52 | 60 | 5.0 | 12.0 | 0.00 | 1.58 | 0.00 | 88 | 1010.7 |
| 20260507021842 | 52 | 82 | 6.0 | 15.0 | 0.00 | 1.58 | 0.00 | 89 | 1010.7 |
| 20260507020333 | 52 | 77 | 5.0 | 11.0 | 0.00 | 1.58 | 0.00 | 90 | 1010.8 |
| 20260507014827 | 52 | 70 | 5.0 | 11.0 | 0.00 | 1.58 | 0.00 | 91 | 1010.7 |
| 20260507013345 | 52 | 53 | 2.0 | 5.0 | 0.00 | 1.69 | 0.00 | 90 | 1010.8 |
| 20260507011837 | 52 | 80 | 2.0 | 3.0 | 0.00 | 1.69 | 0.00 | 90 | 1010.7 |
| 20260507010331 | 52 | 54 | 1.0 | 4.0 | 0.00 | 1.69 | 0.00 | 90 | 1010.7 |
| 20260507004829 | 52 | 46 | 2.0 | 5.0 | 0.00 | 1.69 | 0.00 | 89 | 1010.6 |
| 20260507003342 | 53 | 9 | 1.0 | 4.0 | 0.00 | 1.69 | 0.00 | 89 | 1010.5 |
| 20260507001839 | 53 | 350 | 3.0 | 11.0 | 0.00 | 1.69 | 0.00 | 88 | 1010.5 |
| 20260507000336 | 53 | 94 | 2.0 | 11.0 | 0.00 | 1.69 | 0.00 | 89 | 1010.3 |
| 20260506234829 | 53 | 41 | 7.0 | 13.0 | 0.00 | 1.69 | 0.00 | 89 | 1010.3 |
| 20260506233324 | 53 | 51 | 5.0 | 11.0 | 0.00 | 1.69 | 0.00 | 90 | 1010.4 |
| 20260506231842 | 53 | 26 | 4.0 | 13.0 | 0.00 | 1.69 | 0.00 | 90 | 1010.5 |
| 20260506230345 | 53 | 67 | 5.0 | 11.0 | 0.00 | 1.69 | 0.00 | 90 | 1010.4 |
| 20260506224838 | 53 | 85 | 4.0 | 9.0 | 0.00 | 1.69 | 0.00 | 90 | 1010.3 |
| 20260506223328 | 53 | 55 | 5.0 | 11.0 | 0.00 | 1.69 | 0.00 | 91 | 1010.1 |
| 20260506221826 | 53 | 80 | 5.0 | 11.0 | 0.00 | 1.69 | 0.00 | 91 | 1010.1 |
| 20260506220339 | 53 | 90 | 3.0 | 11.0 | 0.00 | 1.69 | 0.00 | 92 | 1010.1 |
| 20260506214834 | 52 | 63 | 3.0 | 7.0 | 0.00 | 1.69 | 1.69 | 92 | 1010.1 |
| 20260506213329 | 52 | 41 | 2.0 | 5.0 | 0.00 | 1.69 | 1.69 | 92 | 1010.1 |
| 20260506211842 | 52 | 40 | 3.0 | 11.0 | 0.00 | 1.69 | 1.69 | 92 | 1010.0 |
| 20260506210333 | 52 | 22 | 3.0 | 8.0 | 0.00 | 1.69 | 1.69 | 93 | 1009.9 |
| 20260506204835 | 52 | 347 | 2.0 | 5.0 | 0.00 | 1.69 | 1.69 | 93 | 1009.8 |
| 20260506203325 | 52 | 324 | 3.0 | 5.0 | 0.00 | 1.70 | 1.69 | 93 | 1009.8 |
| 20260506201827 | 52 | 54 | 2.0 | 3.0 | 0.00 | 1.70 | 1.69 | 93 | 1009.8 |
| 20260506200345 | 52 | 33 | 0.0 | 5.0 | 0.00 | 1.70 | 1.69 | 93 | 1009.7 |
| 20260506194836 | 52 | 53 | 2.0 | 4.0 | 0.00 | 1.70 | 1.69 | 93 | 1009.4 |
| 20260506193333 | 52 | 22 | 4.0 | 6.0 | 0.00 | 1.70 | 1.69 | 92 | 1009.1 |
| 20260506191841 | 52 | 58 | 0.0 | 3.0 | 0.03 | 1.70 | 1.69 | 92 | 1008.9 |
| 20260506190332 | 52 | 74 | 3.0 | 10.0 | 0.12 | 1.70 | 1.69 | 93 | 1008.6 |
| 20260506184835 | 53 | 99 | 5.0 | 12.0 | 0.19 | 1.70 | 1.69 | 92 | 1007.8 |
| 20260506183335 | 53 | 117 | 4.0 | 14.0 | 0.33 | 1.75 | 1.69 | 92 | 1008.2 |
| 20260506181829 | 54 | 107 | 10.0 | 13.0 | 0.30 | 1.72 | 1.66 | 91 | 1007.9 |
| 20260506180342 | 54 | 308 | 3.0 | 6.0 | 0.21 | 1.63 | 1.57 | 90 | 1008.9 |
| 20260506174834 | 55 | 55 | 7.0 | 11.0 | 0.14 | 1.56 | 1.50 | 89 | 1008.0 |
| 20260506173343 | 55 | 51 | 1.0 | 9.0 | 0.00 | 1.52 | 1.36 | 89 | 1007.6 |
| 20260506171835 | 55 | 73 | 3.0 | 7.0 | 0.00 | 1.52 | 1.36 | 90 | 1007.4 |
| 20260506170329 | 56 | 38 | 0.0 | 4.0 | 0.00 | 1.52 | 1.36 | 90 | 1007.2 |
| 20260506164838 | 56 | 70 | 2.0 | 7.0 | 0.00 | 1.52 | 1.36 | 90 | 1006.9 |